This demonstration page uses our WeatherBlox Daily Observations layout. Learn more.

38.88101, -77.10428

Hourly Observations for November 20, 2016

Temp ( °F °C ) Dew Point ( °F °C ) Humidity (%) Winds ( mph kmh ) Pressure ( in mb ) Visibility ( mi km ) Precip ( " mm )
12:52 am 00:52 Mostly Cloudy 41 5 23 -5 49 49 WNW 16 26 29.88 1012 10 16.09344 0 0
1:52 am 01:52 Mostly Clear 40 4.4 23 -5 51 51 W 13 20 29.88 1012 10 16.09344 0 0
2:52 am 02:52 Partly Cloudy 41 5 25 -3.9 53 53 WNW 21 33 29.88 1012 10 16.09344 0 0
3:52 am 03:52 Mostly Clear 39 3.9 25 -3.9 57 57 W 14 22 29.88 1012 10 16.09344 0 0
4:52 am 04:52 Partly Cloudy 39 3.9 24 -4.4 55 55 W 10 17 29.88 1012 10 16.09344 0 0
5:52 am 05:52 Mostly Cloudy 40 4.4 24 -4.4 53 53 W 12 19 29.88 1012 10 16.09344 0 0
6:52 am 06:52 Partly Cloudy 40 4.4 22 -5.6 49 49 WNW 16 26 29.88 1012 10 16.09344 0 0
7:52 am 07:52 Mostly Cloudy 41 5 22 -5.6 47 47 WNW 15 24 29.88 1012 10 16.09344 0 0
8:52 am 08:52 Mostly Cloudy 41 5 20 -6.7 43 43 W 15 24 29.88 1012 10 16.09344 0 0
9:52 am 09:52 Mostly Cloudy 44 6.7 20 -6.7 38 38 WNW 18 30 29.91 1013 10 16.09344 0 0
10:52 am 10:52 Mostly Cloudy 44 6.7 18 -7.8 35 35 WNW 25 41 29.88 1012 10 16.09344 0 0
11:52 am 11:52 Mostly Cloudy 46 7.8 19 -7.2 34 34 WNW 30 48 29.85 1011 10 16.09344 0 0
12:52 pm 12:52 Partly Cloudy 46 7.8 19 -7.2 34 34 WNW 30 48 29.83 1010 10 16.09344 0 0
1:52 pm 13:52 Mostly Cloudy 46 7.8 19 -7.2 34 34 WNW 23 37 29.85 1011 10 16.09344 0 0
2:52 pm 14:52 Mostly Cloudy 45 7.2 20 -6.7 37 37 WNW 23 37 29.85 1011 10 16.09344 0 0
3:52 pm 15:52 Mostly Cloudy 43 6.1 19 -7.2 38 38 WNW 30 48 29.88 1012 10 16.09344 0 0
4:52 pm 16:52 Mostly Cloudy 42 5.6 19 -7.2 40 40 W 23 37 29.88 1012 10 16.09344 0 0
5:52 pm 17:52 Partly Cloudy 40 4.4 19 -7.2 43 43 WNW 25 41 29.91 1013 10 16.09344 0 0
6:52 pm 18:52 Mostly Clear 39 3.9 19 -7.2 45 45 WNW 29 46 29.91 1013 10 16.09344 0 0
7:52 pm 19:52 Mostly Clear 39 3.9 18 -7.8 43 43 WNW 18 30 29.91 1013 10 16.09344 0 0
8:52 pm 20:52 Cloudy 39 3.9 18 -7.8 43 43 WNW 14 22 29.91 1013 10 16.09344 0 0
9:52 pm 21:52 Partly Cloudy 38 3.3 18 -7.8 44 44 W 26 43 29.91 1013 10 16.09344 0 0
10:52 pm 22:52 Partly Cloudy 38 3.3 18 -7.8 44 44 WNW 24 39 29.88 1012 10 16.09344 0 0
11:52 pm 23:52 Partly Cloudy 37 2.8 16 -8.9 42 42 WNW 9 15 29.88 1012 10 16.09344 0 0

Powered by AerisWeather